User: anonymous   Login
Location: Brno
(49.2000°N, 16.6330°E)
Time: 20:01:44
(UTC+01:00)
Language:

Cosmos 2227 - Orbit

View from above orbital plane
View from above orbital plane
View from above satellite
View from above satellite

Ground track
Ground track

The orbit data is extracted from the following two-line orbital elements,

1 22284U 92093A   14324.67280612 -.00000181  00000-0 -71369-4 0   260
2 22284 070.9792 044.9284 0017774 163.2110 302.9654 14.13183611129915
Epoch (UTC): 20 November 2014 16:08:50
Eccentricity: 0.0017774
inclination: 70.9792°
perigee height: 835 km
apogee height: 861 km
right ascension of ascending node: 44.9284°
argument of perigee: 163.2110°
revolutions per day: 14.13183611
mean anomaly at epoch: 302.9654°
orbit number at epoch: 12991

The dashed part of the orbit path shows where the satellite is in the earth's shadow,  

DLR